Temperature
15 14 13 13 13 13 14 14 13 13 13 13 13 13 12 12 11 10 10 11 10 10 10 10 10 10 10 10 10 10 10 10 11 11 11 11 11 11 11 11 11 11 11
15 14 14 14 13 13 13 13 13 13 13 13 13 12 12 12 11 10 9 10 10 10 10 10 10 10 9 9 10 10 10 10 10 10 10 10 10 10 10 10 10 10 10
15 15 14 14 13 13 13 13 13 13 12 12 12 12 12 11 11 10 10 9 10 10 10 10 10 10 9 9 9 9 9 9 9 9 9 9 9 9 9 9 9 9 9
15 14 14 14 14 13 13 13 13 12 12 12 12 12 12 11 11 10 10 10 9 9 9 10 9 9 9 9 9 9 9 9 9 8 8 8 8 8 7 7 7 8 8
15 15 14 14 14 13 13 13 13 12 12 12 11 11 11 11 10 11 10 10 10 9 9 9 9 9 9 8 8 8 8 8 8 8 8 7 7 7 6 6 6 6 6
16 15 14 14 14 13 13 13 12 12 12 11 11 11 11 10 10 10 9 10 10 9 9 9 9 9 8 8 8 8 8 7 7 7 7 6 6 5 5 5 5 4 4
16 15 15 14 14 14 13 13 12 12 11 11 10 10 10 10 10 10 10 9 9 9 9 9 9 9 8 8 8 7 7 7 7 7 6 5 5 4 4 4 4 4 4
16 16 15 15 15 14 13 13 12 12 11 11 10 10 9 9 10 10 10 9 9 9 9 9 9 9 8 8 8 7 7 7 6 6 5 5 4 4 3 3 3 3 3
16 16 16 15 15 14 14 13 13 12 12 11 11 10 10 10 9 10 10 10 9 9 9 9 9 9 8 7 7 7 7 6 6 6 5 4 3 3 3 3 3 2 2
16 16 15 15 14 14 14 13 13 12 12 11 11 11 11 11 11 10 10 10 10 9 9 9 9 8 8 7 7 6 6 6 5 5 4 4 3 3 2 2 2 2 2
15 15 15 14 14 14 14 13 13 12 12 12 11 11 11 11 11 11 10 10 10 10 9 9 8 8 7 6 6 6 5 5 5 4 4 3 2 2 2 1 1 1 1
14 14 14 14 14 14 14 13 13 12 12 12 11 11 11 11 11 11 10 11 10 10 9 9 8 8 7 6 5 5 5 4 4 4 3 3 2 2 1 1 1 0 0
13 13 13 13 13 13 13 13 13 13 12 12 11 11 11 11 11 11 10 10 10 9 9 8 7 7 6 5 4 4 4 3 3 3 3 3 2 2 2 2 1 0 -0
12 12 12 13 12 12 12 11 12 12 12 11 11 11 10 10 10 10 10 10 9 8 8 7 7 6 5 4 3 3 2 3 3 2 2 2 2 2 2 1 1 -0 -1
12 12 11 11 11 11 10 10 10 10 10 10 10 10 10 10 9 9 9 9 8 7 6 5 5 5 4 3 2 2 1 2 2 2 1 1 1 1 1 0 -0 -1 -1
12 11 11 11 10 10 10 9 9 9 9 10 10 10 9 9 8 7 7 7 7 6 5 4 4 3 3 2 1 1 0 0 1 1 0 0 -0 -1 -1 -1 -2 -2 -2
11 11 11 10 10 9 9 9 9 9 9 9 9 9 8 7 6 6 6 6 5 5 4 3 3 2 1 1 0 -0 -1 -1 -1 -0 -1 -1 -1 -2 -2 -2 -2 -3 -3
10 10 10 10 9 9 9 9 9 9 9 9 9 8 7 6 5 5 4 4 4 4 3 3 2 1 0 -0 -1 -1 -1 -1 -1 -1 -1 -2 -2 -2 -3 -3 -3 -3 -4
9 9 9 9 8 8 8 8 8 8 8 7 7 6 5 4 4 3 3 3 3 2 2 1 0 -1 -1 -1 -1 -2 -2 -2 -2 -2 -2 -2 -3 -3 -3 -3 -4 -4 -4
8 8 8 7 7 7 7 7 7 7 6 5 4 3 3 2 2 2 2 2 2 1 0 -1 -1 -2 -2 -2 -3 -3 -4 -4 -4 -3 -3 -3 -3 -3 -3 -3 -4 -4 -4
6 6 6 6 6 6 6 5 5 4 4 3 2 1 1 2 2 2 1 1 -0 -1 -1 -2 -3 -4 -4 -4 -5 -6 -6 -6 -5 -4 -4 -4 -4 -4 -3 -3 -3 -3 -4
5 5 5 5 4 4 3 3 2 2 1 1 1 1 1 1 1 0 -0 -1 -1 -2 -2 -4 -5 -5 -6 -6 -7 -7 -8 -8 -7 -6 -6 -6 -5 -5 -4 -4 -3 -3 -4
3 3 3 2 2 1 1 1 0 0 0 1 1 1 0 -0 -1 -1 -2 -2 -2 -3 -4 -5 -6 -7 -7 -7 -8 -8 -8 -8 -8 -7 -8 -7 -6 -5 -5 -4 -3 -3 -4
1 1 0 -0 -0 -1 -1 -0 -0 0 0 0 -0 -1 -1 -2 -2 -2 -2 -3 -3 -4 -5 -6 -7 -7 -7 -7 -8 -8 -8 -8 -8 -7 -8 -8 -7 -6 -6 -4 -3 -3 -4
-1 -1 -1 -1 -1 -1 -1 -1 -1 -0 -1 -1 -2 -2 -2 -2 -3 -3 -4 -4 -5 -6 -7 -7 -7 -7 -7 -7 -8 -8 -8 -8 -8 -7 -7 -8 -7 -7 -6 -4 -4 -4 -4
-1 -1 -1 -1 -1 -1 -2 -2 -2 -2 -2 -2 -2 -3 -3 -3 -4 -5 -6 -7 -7 -7 -8 -7 -7 -7 -7 -7 -7 -8 -8 -8 -8 -8 -7 -8 -7 -8 -8 -5 -4 -4 -4
Wind_Speed
10 10 10 10 10 9 9 8 8 7 7 6 5 5 5 5 6 6 8 10 11 10 8 8 8 8 8 8 8 8 8 8 8 9 9 10 10 10 11 11 11 11 11
12 11 10 11 11 10 10 9 9 7 6 6 5 6 6 6 6 7 8 9 10 9 8 7 7 7 7 7 7 6 6 6 7 7 7 8 8 9 9 10 10 11 11
15 13 11 10 11 12 11 9 9 7 6 5 6 6 6 7 7 7 7 7 8 9 8 8 7 6 6 6 5 5 5 5 5 5 5 6 6 7 8 8 9 10 10
18 15 11 11 13 12 11 9 8 7 7 6 6 6 6 7 9 8 8 8 7 8 9 8 7 6 5 4 4 4 4 3 3 3 3 4 5 6 6 7 8 9 10
21 18 13 13 14 12 10 10 9 9 8 7 6 6 6 7 8 9 9 9 8 8 8 9 8 6 5 3 3 3 3 3 3 3 4 4 5 6 7 8 9 9 10
21 19 14 15 15 12 11 11 11 9 7 7 6 6 6 6 7 8 9 9 9 10 9 9 8 6 5 2 1 2 4 4 5 5 6 6 7 8 9 10 11 11 12
20 19 14 15 15 14 15 15 12 11 8 8 6 5 6 7 8 8 9 9 10 11 10 10 8 7 6 4 1 2 4 5 6 6 7 8 9 10 11 12 13 13 14
20 17 18 16 16 15 17 17 14 10 8 10 8 5 5 7 8 9 9 9 10 11 11 11 10 8 7 5 2 1 3 5 6 8 9 10 11 12 13 14 15 16 17
20 19 19 17 17 17 16 18 18 16 11 11 10 8 6 7 6 8 11 10 10 9 10 11 11 9 7 5 4 3 0 3 6 8 9 11 12 14 16 17 18 19 19
18 20 19 18 17 16 17 18 19 17 15 12 10 8 6 3 5 6 7 10 11 11 10 9 10 9 8 6 4 2 1 2 5 8 10 13 15 17 18 19 20 21 21
17 18 18 17 17 17 18 18 18 19 16 15 10 8 7 4 6 5 5 7 8 9 9 9 8 8 8 7 6 4 1 3 6 10 13 15 17 19 20 21 21 21 21
13 18 17 17 18 17 19 19 19 20 18 17 14 11 9 7 8 7 5 5 6 7 9 7 7 8 8 7 6 4 1 4 8 12 15 18 19 20 21 21 22 22 22
13 15 16 17 16 17 18 17 17 18 19 18 16 13 11 10 5 7 6 4 4 4 6 6 7 8 8 7 6 4 4 6 10 14 17 19 20 20 21 21 22 22 23
14 15 16 16 16 16 15 15 14 16 15 15 14 12 8 6 5 5 5 6 4 3 4 5 5 7 7 7 5 5 7 8 11 15 18 20 20 21 21 22 22 23 23
11 13 14 14 14 14 13 12 11 13 12 12 10 9 7 5 4 3 4 4 5 5 4 4 3 5 6 7 6 8 9 10 13 17 19 20 21 21 22 23 23 24 24
9 10 11 12 12 12 11 10 8 9 10 8 7 9 7 6 6 5 5 5 4 4 3 2 2 3 6 7 8 10 11 12 16 17 19 20 21 23 23 23 23 24 24
7 7 8 8 10 10 10 10 10 11 11 10 10 11 10 9 7 6 6 6 5 4 3 2 2 3 4 6 7 10 11 12 13 16 18 21 23 23 23 23 23 23 24
3 4 5 6 8 9 10 11 12 12 12 13 12 12 12 9 9 7 6 6 5 3 3 3 3 4 6 7 7 9 11 12 14 17 20 22 23 23 23 23 22 23 23
1 2 3 5 6 7 9 9 10 11 10 11 11 12 11 11 9 7 6 5 4 3 2 3 4 4 5 6 8 9 10 11 13 16 18 20 21 21 21 22 23 24 25
5 5 5 6 6 6 7 9 10 11 11 11 10 10 10 9 9 8 6 5 4 4 4 4 5 6 6 7 7 8 9 9 10 12 16 18 19 20 22 24 25 26 26
9 9 10 10 9 8 8 11 11 12 13 13 11 10 9 10 9 6 4 4 5 4 4 5 6 6 7 6 7 7 9 10 11 10 10 10 12 13 17 20 23 24 24
11 11 11 11 11 9 15 17 14 12 12 12 11 9 9 8 7 6 4 5 7 6 6 6 7 8 8 8 7 8 9 10 9 6 9 11 11 14 15 17 21 24 26
12 12 12 12 13 15 19 19 18 13 12 10 9 8 6 5 5 2 1 3 6 7 8 8 9 9 9 8 9 10 11 12 13 12 13 15 14 15 14 19 23 26 27
11 11 12 12 13 15 20 20 19 13 11 9 8 6 5 3 2 2 3 4 5 6 6 7 8 9 9 9 10 11 12 13 15 13 13 14 14 14 13 16 22 25 26
11 11 11 12 13 14 17 16 14 8 8 8 6 4 2 1 2 4 4 5 6 6 7 9 12 13 15 16 14 10 10 11 12 12 10 9 11 12 13 14 17 20 22
10 10 11 10 10 10 12 12 10 6 6 5 3 2 1 2 3 4 4 5 7 7 7 8 9 10 11 13 13 11 9 9 9 7 7 6 9 9 8 9 10 12 15
Wind_Direction
203 205 206 202 204 201 198 203 203 191 187 179 177 176 174 170 166 150 131 116 117 119 117 113 107 101 95 88 82 73 63 58 56 53 51 47 42 36 33 31 27 24 20
207 207 208 206 206 204 205 205 207 197 193 187 182 182 180 176 177 171 152 131 118 123 128 124 115 106 99 90 85 76 63 55 50 47 44 41 35 29 25 23 19 15 12
211 210 210 207 207 204 201 204 202 199 193 188 189 187 186 187 183 179 172 162 145 133 135 133 125 115 101 88 79 72 61 52 41 34 30 26 22 15 12 11 9 5 1
214 213 212 210 206 200 197 195 193 193 191 194 192 187 190 190 194 186 181 178 169 159 146 137 133 123 109 88 67 55 44 33 16 5 2 359 355 350 349 350 351 349 347
215 214 214 210 204 201 200 196 197 198 197 193 191 189 193 194 194 193 192 186 179 177 166 140 131 121 120 100 56 26 6 346 324 318 319 320 320 321 322 324 328 330 330
217 216 215 211 204 203 201 198 196 197 197 182 176 187 198 202 203 203 198 192 187 187 185 174 169 151 136 127 52 348 331 315 302 295 297 300 302 304 305 309 312 314 315
219 216 215 211 205 207 205 201 193 189 186 171 168 187 201 212 215 208 206 201 197 194 194 194 198 194 185 169 176 315 309 304 299 294 293 293 295 298 299 300 302 304 306
220 217 216 212 206 208 206 201 191 191 183 184 187 185 202 205 216 214 210 211 205 198 202 203 202 203 206 211 182 247 300 303 300 297 294 295 297 299 298 298 299 300 301
221 218 219 217 210 208 206 202 196 194 191 193 200 196 199 210 187 195 210 210 209 206 205 203 203 202 202 205 204 183 308 311 303 301 303 303 302 301 299 298 297 297 297
222 220 221 220 215 212 211 206 203 203 196 193 202 223 238 215 185 181 197 210 211 213 209 199 199 197 195 193 180 134 96 335 317 314 310 306 303 300 298 296 295 295 296
222 219 219 218 217 214 215 210 205 206 203 200 193 191 206 214 224 200 186 189 203 212 208 201 195 192 188 187 188 156 123 327 319 315 310 306 303 300 298 296 295 295 295
226 221 219 218 218 217 217 213 208 209 209 207 201 194 190 190 201 204 197 180 190 190 194 195 196 191 186 186 181 152 202 307 312 311 307 304 302 300 300 298 297 295 293
233 225 218 220 220 221 220 216 211 211 212 212 208 207 208 207 186 196 196 164 164 161 184 197 199 190 182 186 182 182 244 294 306 306 304 303 302 302 300 297 294 292 290
240 231 222 221 221 221 221 218 215 213 213 213 213 206 199 193 180 180 173 155 154 162 181 179 174 186 184 193 195 228 266 279 296 301 301 301 300 298 296 293 292 290 289
248 238 225 220 218 217 215 212 215 213 210 209 203 190 174 154 140 132 129 145 157 170 178 164 171 183 193 206 213 255 274 278 290 295 296 296 294 293 292 290 289 288 287
247 239 227 219 213 207 202 200 201 197 192 186 172 165 152 143 129 116 109 94 93 124 144 152 182 176 194 216 239 266 277 282 283 286 289 290 290 289 287 286 285 285 285
245 232 223 211 203 196 190 187 185 179 177 169 164 159 150 141 131 120 110 104 98 105 148 153 178 199 220 240 256 266 274 279 281 282 285 288 288 286 284 284 283 283 282
250 229 208 194 188 183 180 179 177 173 171 166 160 151 144 136 125 120 115 113 118 122 149 190 208 212 234 253 268 275 279 281 282 285 287 287 286 285 284 282 281 281 281
69 119 152 160 164 168 169 168 164 159 155 150 146 142 137 132 126 122 121 124 127 136 159 211 237 234 245 254 270 274 277 279 282 284 285 285 284 284 282 281 282 282 283
76 89 96 105 117 129 136 137 134 130 124 118 118 119 120 123 126 129 129 137 143 161 189 223 245 251 253 261 267 277 284 287 288 288 285 283 282 282 281 280 280 280 280
69 79 85 88 91 98 110 115 115 115 111 104 98 97 100 110 125 131 139 155 170 192 213 233 248 257 261 265 270 282 288 294 293 290 286 282 283 282 282 280 277 276 276
71 76 81 87 89 95 109 110 110 106 105 104 102 97 98 99 113 127 159 190 202 215 229 241 255 261 270 277 283 286 292 294 297 292 291 290 289 285 283 280 278 279 279
74 77 80 84 91 100 104 103 101 98 97 98 101 104 104 107 104 112 215 253 245 249 251 258 265 271 280 285 291 289 285 284 283 286 292 288 288 284 282 279 279 279 280
73 77 81 83 85 89 93 94 94 90 92 94 97 103 111 120 144 201 223 238 247 250 256 264 271 278 280 283 278 278 282 283 282 279 275 280 284 283 285 282 280 279 280
71 72 76 79 83 84 88 92 94 94 99 100 105 116 130 166 231 254 251 254 263 265 260 267 277 280 281 281 282 284 281 279 283 285 284 278 282 290 289 284 280 279 278
75 76 76 77 85 92 97 100 101 104 109 115 125 140 202 295 289 285 279 273 277 287 292 286 280 277 277 277 274 265 263 266 273 282 277 270 285 302 296 279 280 285 285
Height
1547 1548 1550 1551 1552 1553 1553 1554 1555 1555 1555 1555 1555 1555 1555 1555 1555 1555 1554 1554 1554 1554 1554 1554 1553 1553 1552 1552 1552 1551 1551 1550 1549 1549 1548 1547 1547 1546 1546 1545 1545 1544 1544
1543 1544 1546 1547 1548 1549 1551 1552 1552 1552 1553 1553 1553 1553 1553 1553 1553 1554 1553 1552 1552 1552 1552 1552 1552 1552 1552 1551 1551 1550 1550 1549 1549 1548 1547 1546 1546 1545 1544 1543 1543 1542 1542
1539 1540 1542 1543 1544 1545 1547 1548 1549 1549 1550 1550 1550 1550 1550 1551 1551 1551 1551 1551 1550 1550 1551 1551 1551 1551 1551 1551 1550 1549 1549 1548 1547 1546 1546 1545 1544 1543 1543 1542 1541 1540 1539
1534 1536 1537 1538 1540 1541 1542 1544 1545 1546 1547 1547 1548 1548 1548 1548 1548 1548 1548 1548 1549 1549 1549 1549 1549 1549 1550 1549 1549 1548 1547 1546 1546 1545 1544 1543 1542 1542 1541 1540 1539 1538 1537
1529 1530 1531 1533 1534 1536 1537 1539 1540 1542 1543 1544 1544 1545 1545 1545 1545 1545 1545 1545 1546 1546 1546 1546 1547 1547 1548 1548 1547 1546 1546 1545 1544 1543 1542 1541 1540 1540 1539 1538 1537 1536 1535
1523 1524 1525 1527 1528 1530 1531 1533 1535 1537 1538 1540 1540 1541 1541 1541 1541 1541 1542 1542 1542 1543 1544 1544 1545 1545 1545 1545 1545 1545 1544 1543 1542 1541 1540 1539 1538 1537 1537 1536 1535 1534 1533
1516 1518 1519 1520 1522 1523 1525 1528 1529 1531 1533 1535 1536 1537 1537 1537 1537 1537 1537 1538 1539 1539 1540 1541 1541 1542 1542 1542 1542 1542 1541 1540 1539 1538 1537 1536 1535 1534 1534 1533 1532 1531 1530
1509 1510 1512 1513 1514 1516 1518 1520 1522 1524 1526 1529 1531 1532 1533 1533 1531 1531 1532 1533 1534 1535 1536 1537 1537 1538 1538 1538 1538 1538 1537 1536 1536 1535 1534 1533 1532 1531 1530 1529 1528 1527 1526
1501 1502 1504 1506 1507 1509 1510 1512 1514 1517 1519 1522 1524 1527 1527 1526 1526 1526 1527 1528 1529 1530 1531 1532 1533 1533 1533 1534 1533 1533 1532 1532 1531 1530 1529 1528 1527 1526 1525 1524 1523 1522 1521
1492 1494 1496 1498 1499 1501 1503 1504 1507 1509 1512 1514 1516 1518 1520 1520 1521 1521 1521 1523 1524 1525 1526 1527 1528 1528 1528 1529 1528 1528 1527 1527 1526 1525 1524 1523 1522 1521 1520 1519 1517 1516 1515
1484 1485 1487 1489 1491 1493 1495 1497 1499 1501 1504 1506 1508 1510 1512 1514 1516 1517 1516 1517 1518 1520 1521 1522 1522 1523 1523 1523 1523 1522 1522 1522 1521 1519 1518 1517 1516 1514 1513 1511 1510 1508 1507
1476 1476 1478 1480 1481 1483 1486 1488 1490 1493 1495 1498 1500 1502 1504 1506 1508 1510 1511 1511 1512 1513 1515 1516 1516 1517 1517 1518 1517 1517 1516 1516 1515 1514 1512 1511 1509 1507 1505 1503 1501 1500 1498
1468 1468 1470 1471 1472 1474 1477 1479 1481 1483 1486 1489 1491 1493 1496 1499 1501 1503 1505 1506 1507 1507 1508 1509 1510 1511 1512 1512 1511 1511 1510 1510 1509 1508 1506 1504 1501 1499 1496 1494 1493 1491 1490
1461 1462 1463 1464 1465 1467 1469 1471 1473 1475 1477 1480 1483 1486 1488 1490 1493 1496 1498 1500 1500 1501 1502 1503 1504 1505 1506 1506 1505 1505 1504 1503 1502 1501 1499 1496 1494 1491 1489 1486 1484 1483 1481
1454 1455 1455 1456 1458 1459 1461 1463 1465 1467 1469 1472 1475 1478 1480 1482 1485 1487 1490 1492 1494 1495 1496 1497 1498 1499 1499 1499 1499 1499 1497 1495 1494 1493 1491 1488 1485 1483 1480 1478 1476 1474 1473
1447 1448 1448 1450 1451 1452 1454 1456 1457 1460 1462 1464 1467 1469 1472 1474 1477 1479 1482 1484 1487 1489 1490 1491 1492 1493 1493 1493 1492 1492 1490 1487 1485 1484 1482 1479 1477 1475 1472 1470 1468 1466 1464
1440 1441 1442 1443 1444 1446 1447 1449 1451 1453 1455 1457 1460 1462 1464 1467 1469 1472 1475 1477 1479 1482 1484 1485 1486 1486 1487 1486 1485 1484 1483 1480 1478 1476 1473 1471 1469 1467 1464 1462 1460 1458 1456
1435 1436 1437 1437 1438 1440 1441 1443 1444 1446 1449 1451 1453 1455 1457 1461 1464 1467 1470 1473 1474 1476 1478 1479 1479 1480 1480 1480 1479 1477 1475 1473 1471 1468 1466 1464 1461 1459 1457 1454 1452 1450 1448
1431 1432 1432 1433 1434 1435 1437 1438 1439 1441 1443 1445 1447 1450 1453 1457 1460 1463 1466 1469 1470 1471 1472 1473 1473 1474 1474 1473 1471 1470 1468 1466 1464 1461 1459 1457 1454 1452 1450 1447 1445 1443 1441
1428 1429 1429 1430 1431 1432 1433 1434 1435 1436 1439 1441 1444 1448 1452 1455 1459 1461 1463 1465 1466 1467 1467 1468 1468 1468 1467 1466 1464 1463 1461 1459 1457 1455 1452 1450 1448 1445 1443 1441 1438 1436 1433
1427 1427 1427 1428 1429 1430 1430 1431 1433 1434 1437 1440 1443 1448 1451 1454 1457 1459 1460 1461 1462 1462 1463 1463 1463 1462 1461 1460 1459 1457 1455 1453 1450 1448 1445 1443 1441 1438 1436 1433 1431 1428 1425
1426 1426 1427 1427 1428 1429 1430 1431 1433 1435 1438 1441 1445 1448 1451 1453 1455 1456 1457 1457 1458 1458 1458 1458 1458 1457 1456 1455 1454 1452 1450 1447 1444 1443 1440 1437 1435 1431 1429 1426 1423 1420 1417
1427 1427 1427 1428 1429 1430 1431 1433 1436 1438 1441 1443 1446 1448 1450 1451 1452 1452 1453 1453 1453 1453 1453 1453 1453 1452 1451 1450 1448 1446 1445 1443 1440 1438 1436 1430 1429 1424 1422 1418 1415 1412 1408
1429 1430 1431 1432 1433 1434 1436 1437 1439 1441 1442 1444 1446 1447 1448 1449 1449 1449 1449 1449 1449 1449 1448 1447 1447 1446 1445 1444 1443 1442 1440 1437 1435 1433 1430 1425 1421 1418 1414 1410 1407 1404 1400
1434 1435 1436 1437 1437 1438 1439 1441 1442 1443 1443 1444 1445 1446 1447 1447 1446 1446 1446 1445 1445 1445 1443 1442 1441 1440 1439 1439 1438 1437 1435 1432 1429 1427 1425 1421 1415 1411 1406 1402 1399 1395 1391
1439 1440 1440 1441 1442 1442 1442 1443 1443 1443 1444 1444 1445 1445 1445 1444 1444 1443 1443 1442 1442 1441 1440 1438 1437 1435 1434 1433 1432 1431 1429 1427 1424 1420 1418 1415 1410 1405 1397 1392 1390 1387 1382